FW6216 Weather Reports


Display with metric or nautical units.
time (UTC)temp
F
wind
direction
speed
MPH
gust
MPH
rain 1hr
in
rain 24hr
in
rain mn
in
humidity
%
barometer
mb
20260905204531 63 34 2.0 10.0 0.00 0.01 0.00 62 1019.6
20260905201530 64 355 3.0 7.0 0.00 0.01 0.00 62 1019.7
20260905194532 64 18 3.0 10.0 0.00 0.01 0.00 60 1019.8
20260905193031 65 24 3.0 11.0 0.00 0.01 0.00 61 1019.8
20260905191528 65 25 4.0 9.0 0.00 0.01 0.00 63 1019.9
20260905190143 64 21 3.0 8.0 0.00 0.01 0.00 66 1020.2
20260905184535 63 39 4.0 9.0 0.00 0.01 0.00 68 1020.3
20260905183143 61 41 5.0 13.0 0.00 0.01 0.00 70 1020.4
20260905181531 60 23 3.0 8.0 0.00 0.01 0.00 70 1020.5
20260905180037 60 25 1.0 6.0 0.00 0.01 0.00 69 1020.6
20260905174530 61 3 0.0 2.0 0.00 0.01 0.00 70 1020.5
20260905173108 60 16 1.0 5.0 0.00 0.01 0.00 72 1020.6
20260905170141 61 28 0.0 4.0 0.00 0.01 0.00 75 1020.5
20260905164536 59 6 0.0 4.0 0.00 0.01 0.00 82 1020.4
20260905163035 55 21 0.0 4.0 0.00 0.01 0.00 85 1020.5
20260905161636 54 249 0.0 0.0 0.00 0.01 0.00 85 1020.5
20260905154606 53 247 0.0 0.0 0.00 0.01 0.00 88 1020.5
20260905153036 51 247 0.0 0.0 0.00 0.01 0.00 89 1020.5
20260905151530 49 247 0.0 0.0 0.00 0.01 0.00 90 1020.5
20260905150037 48 247 0.0 2.0 0.00 0.01 0.00 91 1020.4
20260905143107 47 247 0.0 0.0 0.00 0.01 0.00 91 1020.3
20260905140031 45 170 0.0 3.0 0.00 0.01 0.00 90 1020.1
20260905134536 44 157 0.0 0.0 0.00 0.01 0.00 89 1020.0
20260905133143 45 157 0.0 2.0 0.00 0.01 0.00 89 1019.8
20260905131535 45 157 0.0 3.0 0.00 0.01 0.00 89 1019.7
20260905130031 45 157 0.0 0.0 0.00 0.01 0.00 89 1019.7
20260905124537 45 188 1.0 4.0 0.00 0.01 0.00 88 1019.6
20260905121528 47 247 0.0 1.0 0.00 0.01 0.00 86 1019.7
20260905114532 48 198 2.0 4.0 0.00 0.01 0.00 86 1019.6
20260905113034 49 193 1.0 3.0 0.00 0.01 0.00 85 1019.6
20260905111532 50 177 0.0 0.0 0.00 0.01 0.00 85 1019.6
20260905110107 50 179 0.0 0.0 0.00 0.01 0.00 85 1019.6
20260905104534 50 180 0.0 0.0 0.00 0.01 0.00 85 1019.5
20260905103031 50 153 0.0 0.0 0.00 0.01 0.00 85 1019.5
20260905101530 50 135 0.0 0.0 0.00 0.01 0.00 85 1019.6
20260905100031 50 135 0.0 0.0 0.00 0.01 0.00 85 1019.5
20260905094535 50 140 0.0 3.0 0.00 0.01 0.00 86 1019.6
20260905093110 50 225 0.0 2.0 0.00 0.01 0.00 86 1019.4
20260905090032 50 228 0.0 4.0 0.00 0.01 0.00 85 1019.4
20260905084535 50 230 0.0 4.0 0.00 0.01 0.00 85 1019.4
20260905081641 49 180 0.0 0.0 0.00 0.01 0.00 84 1019.3
20260905080142 50 215 0.0 3.0 0.00 0.01 0.00 83 1019.2
20260905074530 50 232 1.0 3.0 0.00 0.01 0.00 82 1019.0
20260905073031 51 223 0.0 0.0 0.00 0.01 0.00 82 1018.9
20260905071531 51 200 1.0 4.0 0.00 0.01 0.00 82 1018.8
20260905070030 51 183 2.0 5.0 0.00 0.01 0.00 81 1018.6
20260905064530 51 183 1.0 4.0 0.00 0.01 0.01 80 1018.6
20260905063029 51 212 0.0 5.0 0.00 0.01 0.01 79 1018.5
20260905061533 52 220 0.0 0.0 0.00 0.01 0.01 78 1018.4
20260905054531 54 225 0.0 3.0 0.00 0.01 0.01 77 1018.4
20260905051533 54 205 2.0 5.0 0.00 0.01 0.01 76 1018.3
20260905050107 54 225 0.0 3.0 0.00 0.01 0.01 76 1018.3
20260905044535 54 225 1.0 3.0 0.00 0.01 0.01 75 1018.3
20260905041530 54 135 0.0 0.0 0.00 0.01 0.01 74 1018.3
20260905040030 55 103 0.0 0.0 0.00 0.01 0.01 73 1018.2
20260905034538 55 337 0.0 1.0 0.00 0.01 0.01 71 1018.0
20260905033031 56 303 2.0 6.0 0.00 0.01 0.01 71 1017.8
20260905031530 56 301 1.0 5.0 0.00 0.01 0.01 72 1017.7
20260905030036 57 305 1.0 6.0 0.00 0.01 0.01 72 1017.5
20260905024536 57 296 0.0 7.0 0.00 0.01 0.01 73 1017.5
20260905023038 57 1 1.0 5.0 0.00 0.01 0.01 72 1017.5
20260905021532 58 42 3.0 7.0 0.00 0.01 0.01 71 1017.4
20260905020031 59 21 3.0 7.0 0.00 0.01 0.01 69 1017.1
20260905014537 59 353 3.0 6.0 0.00 0.01 0.01 69 1016.9
20260905013032 59 334 3.0 7.0 0.00 0.01 0.01 68 1016.7
20260905011529 59 334 4.0 8.0 0.00 0.01 0.01 65 1016.6
20260905010032 62 346 5.0 11.0 0.00 0.01 0.01 62 1016.4
20260905004532 62 341 6.0 13.0 0.00 0.01 0.01 61 1016.3
20260905003035 63 339 5.0 11.0 0.00 0.01 0.01 60 1016.1
20260905001532 63 324 4.0 10.0 0.00 0.01 0.01 61 1016.0
20260905000035 64 322 4.0 8.0 0.00 0.01 0.01 63 1016.1
20260904234537 63 306 3.0 8.0 0.00 0.01 0.01 69 1016.1
20260904233030 60 325 3.0 7.0 0.01 0.01 0.01 77 1016.2
20260904231531 56 25 1.0 6.0 0.01 0.01 0.01 79 1016.6
20260904224537 60 67 7.0 29.0 0.01 0.01 0.00 62 1016.3
20260904223032 62 214 0.0 11.0 0.00 0.00 0.00 56 1016.0
20260904221535 63 220 3.0 7.0 0.00 0.00 0.00 56 1016.0
20260904220035 63 286 1.0 6.0 0.00 0.00 0.00 56 1016.0
20260904214533 63 319 2.0 6.0 0.00 0.00 0.00 56 1015.9
20260904213031 63 34 1.0 10.0 0.00 0.00 0.00 55 1015.9
20260904211651 64 36 4.0 12.0 0.00 0.00 0.00 53 1015.7
20260904210029 65 8 3.0 13.0 0.00 0.00 0.00 54 1015.7